TimeAEST,TemperatureF,Dew PointF,Humidity,Sea Level PressureIn,VisibilityMPH,Wind Direction,Wind SpeedMPH,Gust SpeedMPH,PrecipitationIn,Events,Conditions,WindDirDegrees,DateUTC
12:00 AM,70,68,93,29.81,,WSW,8.1,,,,Overcast,250,2013-03-01 14:00:00
12:00 AM,69.8,68.0,94,29.80,6.2,WSW,8.1,-,N/A,,Overcast,250,2013-03-01 14:00:00
12:13 AM,69.8,68.0,94,29.80,3.1,SSW,4.6,-,N/A,,Overcast,210,2013-03-01 14:13:00
12:18 AM,69.8,68.0,94,29.80,1.2,SSE,4.6,-,N/A,,Overcast,150,2013-03-01 14:18:00
12:30 AM,69.8,68.0,94,29.80,-9999.0,SSW,3.5,-,N/A,,Overcast,210,2013-03-01 14:30:00
12:51 AM,69.8,68.0,94,29.80,0.3,NW,6.9,-,N/A,,Overcast,310,2013-03-01 14:51:00
1:00 AM,69.8,68.0,94,29.80,0.3,West,5.8,-,N/A,,Overcast,260,2013-03-01 15:00:00
1:30 AM,69.8,68.0,94,29.80,2.8,WNW,5.8,-,N/A,,Overcast,290,2013-03-01 15:30:00
1:50 AM,69.8,68.0,94,29.80,5.0,West,5.8,-,N/A,,Overcast,280,2013-03-01 15:50:00
2:00 AM,69.8,68.0,94,29.80,6.2,WNW,5.8,-,N/A,,Overcast,300,2013-03-01 16:00:00
2:15 AM,69.8,68.0,94,29.80,3.7,NW,8.1,-,N/A,,Overcast,310,2013-03-01 16:15:00
2:30 AM,69.8,68.0,94,29.80,-9999.0,NNW,8.1,-,N/A,,Overcast,330,2013-03-01 16:30:00
3:00 AM,69,67,93,29.81,1,NW,3.5,,,,Overcast,310,2013-03-01 17:00:00
3:00 AM,69.8,68.0,94,29.80,1.4,NW,3.5,-,N/A,,Overcast,310,2013-03-01 17:00:00
3:25 AM,68.0,68.0,100,29.80,-9999.0,WSW,5.8,-,N/A,,Overcast,250,2013-03-01 17:25:00
3:30 AM,68.0,68.0,100,29.80,-9999.0,WSW,6.9,-,N/A,,Overcast,250,2013-03-01 17:30:00
4:00 AM,68.0,68.0,100,29.80,-9999.0,SSW,6.9,-,N/A,,Overcast,210,2013-03-01 18:00:00
4:04 AM,68.0,68.0,100,29.80,-9999.0,SSW,5.8,-,N/A,,Overcast,210,2013-03-01 18:04:00
4:30 AM,68.0,68.0,100,29.80,1.4,SSE,5.8,-,N/A,,Overcast,150,2013-03-01 18:30:00
5:00 AM,69.8,68.0,94,29.80,3.1,SSE,6.9,-,N/A,,Overcast,160,2013-03-01 19:00:00
5:30 AM,69.8,68.0,94,29.80,6.2,SSW,4.6,-,N/A,,Overcast,200,2013-03-01 19:30:00
5:48 AM,69.8,68.0,94,29.83,3.7,SW,4.6,-,N/A,,Overcast,230,2013-03-01 19:48:00
6:00 AM,69,67,93,29.83,2,SW,6.9,,,,Overcast,230,2013-03-01 20:00:00
6:00 AM,69.8,68.0,94,29.83,-9999.0,SW,6.9,-,N/A,,Overcast,230,2013-03-01 20:00:00
6:30 AM,68.0,68.0,100,29.83,1.6,South,6.9,-,N/A,,Overcast,180,2013-03-01 20:30:00
7:00 AM,68.0,68.0,100,29.83,2.8,South,6.9,-,N/A,,Overcast,190,2013-03-01 21:00:00
7:30 AM,68.0,68.0,100,29.83,1.8,ESE,6.9,-,N/A,,Overcast,120,2013-03-01 21:30:00
7:49 AM,68.0,68.0,100,29.86,0.6,SE,5.8,-,N/A,,Overcast,130,2013-03-01 21:49:00
7:53 AM,68.0,68.0,100,29.86,0.4,SE,5.8,-,N/A,,Overcast,140,2013-03-01 21:53:00
8:00 AM,68.0,68.0,100,29.86,0.3,South,4.6,-,N/A,,Overcast,180,2013-03-01 22:00:00
8:29 AM,68.0,68.0,100,29.86,1.3,SW,6.9,-,N/A,,Overcast,230,2013-03-01 22:29:00
8:30 AM,68.0,68.0,100,29.86,1.1,SW,6.9,-,N/A,,Overcast,220,2013-03-01 22:30:00
8:47 AM,69.8,68.0,94,29.86,0.5,South,3.5,-,N/A,,Overcast,170,2013-03-01 22:47:00
9:00 AM,69,68,95,29.87,1,Calm,Calm,,,,Overcast,,2013-03-01 23:00:00
9:00 AM,69.8,68.0,94,29.86,0.6,Calm,Calm,-,N/A,,Overcast,0,2013-03-01 23:00:00
9:30 AM,69.8,68.0,94,29.86,1.2,East,11.5,-,N/A,,Overcast,80,2013-03-01 23:30:00
10:00 AM,71.6,69.8,94,29.86,3.1,East,9.2,-,N/A,,Overcast,100,2013-03-02 00:00:00
10:12 AM,71.6,69.8,94,29.86,5.0,ESE,6.9,-,N/A,,Overcast,110,2013-03-02 00:12:00
10:20 AM,71.6,69.8,94,29.86,6.2,ESE,6.9,-,N/A,,Overcast,110,2013-03-02 00:20:00
10:30 AM,71.6,69.8,94,29.86,6.2,ESE,9.2,-,N/A,,Overcast,110,2013-03-02 00:30:00
11:00 AM,71.6,69.8,94,29.86,5.6,SSE,8.1,-,N/A,,Overcast,160,2013-03-02 01:00:00
11:25 AM,71.6,68.0,88,29.86,3.7,SSE,8.1,-,N/A,,Overcast,160,2013-03-02 01:25:00
11:30 AM,71.6,69.8,94,29.86,3.1,South,8.1,-,N/A,,Overcast,170,2013-03-02 01:30:00
11:49 AM,71.6,68.0,88,29.83,6.2,South,10.4,-,N/A,,Overcast,180,2013-03-02 01:49:00
12:00 PM,71,68,89,29.85,,South,10.4,,,,Overcast,170,2013-03-02 02:00:00
12:00 PM,71.6,68.0,88,29.83,6.2,South,10.4,-,N/A,,Overcast,170,2013-03-02 02:00:00
12:15 PM,71.6,68.0,88,29.83,3.7,South,10.4,-,N/A,,Overcast,180,2013-03-02 02:15:00
12:30 PM,69.8,68.0,94,29.83,4.3,South,12.7,-,N/A,,Overcast,190,2013-03-02 02:30:00
12:39 PM,69.8,68.0,94,29.83,6.2,South,11.5,-,N/A,,Overcast,180,2013-03-02 02:39:00
1:00 PM,71.6,69.8,94,29.83,6.2,South,9.2,-,N/A,,Overcast,170,2013-03-02 03:00:00
1:07 PM,69.8,68.0,94,29.86,3.7,South,8.1,-,N/A,,Overcast,170,2013-03-02 03:07:00
1:30 PM,69.8,68.0,94,29.86,1.3,SE,5.8,-,N/A,,Overcast,130,2013-03-02 03:30:00
1:54 PM,69.8,68.0,94,29.86,1.2,SSE,6.9,-,N/A,,Overcast,150,2013-03-02 03:54:00
2:00 PM,69.8,68.0,94,29.86,1.3,SE,8.1,-,N/A,,Overcast,130,2013-03-02 04:00:00
2:05 PM,69.8,68.0,94,29.86,1.5,SE,6.9,-,N/A,,Overcast,130,2013-03-02 04:05:00
2:06 PM,69.8,68.0,94,29.86,1.6,SE,6.9,-,N/A,,Overcast,130,2013-03-02 04:06:00
2:30 PM,68.0,66.2,94,29.86,-9999.0,South,8.1,-,N/A,,Overcast,190,2013-03-02 04:30:00
2:56 PM,68.0,66.2,94,29.86,4.3,South,5.8,-,N/A,,Overcast,190,2013-03-02 04:56:00
2:57 PM,68.0,66.2,94,29.86,3.7,South,5.8,-,N/A,,Overcast,190,2013-03-02 04:57:00
3:00 PM,69,67,92,29.86,4,SSW,6.9,,,,Overcast,200,2013-03-02 05:00:00
3:00 PM,68.0,68.0,100,29.86,3.7,SSW,6.9,-,N/A,,Overcast,200,2013-03-02 05:00:00
3:14 PM,68.0,68.0,100,29.86,5.0,SSW,6.9,-,N/A,,Overcast,200,2013-03-02 05:14:00
3:30 PM,68.0,68.0,100,29.86,5.6,SW,4.6,-,N/A,,Overcast,230,2013-03-02 05:30:00
3:40 PM,68.0,68.0,100,29.86,3.7,SSW,3.5,-,N/A,,Overcast,210,2013-03-02 05:40:00
3:56 PM,68.0,68.0,100,29.86,5.0,SW,3.5,-,N/A,,Overcast,230,2013-03-02 05:56:00
4:00 PM,68.0,68.0,100,29.86,5.0,SW,3.5,-,N/A,,Overcast,230,2013-03-02 06:00:00
4:36 PM,69.8,68.0,94,29.86,3.7,SSW,4.6,-,N/A,,Overcast,210,2013-03-02 06:36:00
4:46 PM,68.0,68.0,100,29.86,5.6,SSW,3.5,-,N/A,,Overcast,210,2013-03-02 06:46:00
5:00 PM,68.0,68.0,100,29.86,4.3,South,3.5,-,N/A,,Overcast,190,2013-03-02 07:00:00
5:08 PM,68.0,68.0,100,29.86,3.7,South,2.3,-,N/A,,Overcast,190,2013-03-02 07:08:00
5:30 PM,68.0,68.0,100,29.86,-9999.0,South,4.6,-,N/A,,Overcast,170,2013-03-02 07:30:00
5:57 PM,68.0,66.2,94,29.86,5.0,South,6.9,-,N/A,,Overcast,190,2013-03-02 07:57:00
6:00 PM,68,67,94,29.88,5,South,6.9,,,,Overcast,190,2013-03-02 08:00:00
6:00 PM,68.0,66.2,94,29.86,5.0,South,6.9,-,N/A,,Overcast,190,2013-03-02 08:00:00
6:07 PM,68.0,66.2,94,29.86,3.7,South,8.1,-,N/A,,Overcast,190,2013-03-02 08:07:00
6:23 PM,68.0,66.2,94,29.89,6.2,SSW,8.1,-,N/A,,Overcast,210,2013-03-02 08:23:00
6:39 PM,68.0,66.2,94,29.89,3.7,SW,6.9,-,N/A,,Overcast,220,2013-03-02 08:39:00
7:00 PM,68.0,66.2,94,29.89,1.3,SSW,6.9,-,N/A,,Overcast,200,2013-03-02 09:00:00
7:25 PM,68.0,66.2,94,29.89,6.2,SSW,8.1,-,N/A,,Overcast,210,2013-03-02 09:25:00
7:30 PM,68.0,66.2,94,29.89,6.2,SSW,8.1,-,N/A,,Overcast,210,2013-03-02 09:30:00
8:00 PM,69.8,66.2,88,29.89,6.2,South,11.5,-,N/A,,Overcast,190,2013-03-02 10:00:00
8:30 PM,69.8,68.0,94,29.92,6.2,SSW,8.1,-,N/A,,Mostly Cloudy,200,2013-03-02 10:30:00
9:00 PM,69,67,93,29.92,,SSW,8.1,,,,Overcast,210,2013-03-02 11:00:00
9:00 PM,69.8,68.0,94,29.92,6.2,SSW,8.1,-,N/A,,Mostly Cloudy,210,2013-03-02 11:00:00
9:30 PM,69.8,68.0,94,29.92,6.2,SSW,8.1,-,N/A,,Overcast,200,2013-03-02 11:30:00
10:00 PM,69.8,68.0,94,29.89,6.2,South,6.9,-,N/A,,Mostly Cloudy,190,2013-03-02 12:00:00
10:30 PM,69.8,68.0,94,29.89,6.2,South,6.9,-,N/A,,Overcast,190,2013-03-02 12:30:00
11:00 PM,71.6,68.0,88,29.89,6.2,SE,12.7,-,N/A,,Overcast,130,2013-03-02 13:00:00
11:30 PM,71.6,68.0,88,29.89,6.2,SE,8.1,-,N/A,,Overcast,140,2013-03-02 13:30:00